,,,PA_Meas_PMT16A,,PR_Meas_QMR101_102,,RH_Meas_QMH101,,SR_Meas_QMS101,,TA_Meas_QMH101,,GenWind,,GenWind,
date,time,status,PA,status,PR,status,RH,status,SR,status,TA,status,DirAvg,status,SpdAvg,
2012-04-28, 00:00:04,VALID,1001.22,VALID,0,VALID,89.6709,VALID,0,VALID,24.638,VALID,62,VALID,0.885938,
2012-04-28, 00:01:04,VALID,1001.19,VALID,0,VALID,89.6251,VALID,0,VALID,24.6575,VALID,66,VALID,0.908203,
2012-04-28, 00:02:04,VALID,1001.19,VALID,0,VALID,89.6251,VALID,0,VALID,24.6575,VALID,58,VALID,0.508203,
2012-04-28, 00:03:04,VALID,1001.19,VALID,0,VALID,89.7091,VALID,0,VALID,24.6575,VALID,58,VALID,0.567578,
2012-04-28, 00:04:04,VALID,1001.21,VALID,0,VALID,89.7091,VALID,0,VALID,24.6166,VALID,58,VALID,0.225781,
2012-04-28, 00:05:04,VALID,1001.2,VALID,0,VALID,89.8083,VALID,0,VALID,24.5989,VALID,58,VALID,0.252344,
2012-04-28, 00:06:04,VALID,1001.2,VALID,0,VALID,89.9837,VALID,0,VALID,24.558,VALID,58,VALID,0,
2012-04-28, 00:07:04,VALID,1001.25,VALID,0,VALID,90.1668,VALID,0,VALID,24.5599,VALID,58,VALID,0,
2012-04-28, 00:08:04,VALID,1001.24,VALID,0,VALID,90.3042,VALID,0,VALID,24.5404,VALID,58,VALID,0,
2012-04-28, 00:09:04,VALID,1001.25,VALID,0,VALID,90.5102,VALID,0,VALID,24.4995,VALID,58,VALID,0,
2012-04-28, 00:10:04,VALID,1001.26,VALID,0,VALID,90.5865,VALID,0,VALID,24.5209,VALID,58,VALID,0,
2012-04-28, 00:11:04,VALID,1001.25,VALID,0,VALID,90.5483,VALID,0,VALID,24.4818,VALID,58,VALID,0,
2012-04-28, 00:12:04,VALID,1001.22,VALID,0,VALID,90.472,VALID,0,VALID,24.4818,VALID,58,VALID,0,
2012-04-28, 00:13:04,VALID,1001.26,VALID,0,VALID,90.4797,VALID,0,VALID,24.4623,VALID,58,VALID,0,
2012-04-28, 00:14:04,VALID,1001.21,VALID,0,VALID,90.5712,VALID,0,VALID,24.4409,VALID,58,VALID,0.297266,
2012-04-28, 00:15:04,VALID,1001.21,VALID,0,VALID,90.5254,VALID,0,VALID,24.4428,VALID,58,VALID,0.00351562,
2012-04-28, 00:16:04,VALID,1001.21,VALID,0,VALID,90.4873,VALID,0,VALID,24.4214,VALID,58,VALID,0,
2012-04-28, 00:17:04,VALID,1001.22,VALID,0,VALID,90.4339,VALID,0,VALID,24.4428,VALID,58,VALID,0.191016,
2012-04-28, 00:18:04,VALID,1001.22,VALID,0,VALID,90.4339,VALID,0,VALID,24.4428,VALID,93,VALID,0.537109,
2012-04-28, 00:19:04,VALID,1001.21,VALID,0,VALID,90.35,VALID,0,VALID,24.4428,VALID,138,VALID,0.762891,
2012-04-28, 00:20:04,VALID,1001.23,VALID,0,VALID,90.2584,VALID,0,VALID,24.4623,VALID,142,VALID,0.771094,
2012-04-28, 00:21:04,VALID,1001.24,VALID,0,VALID,90.0906,VALID,0,VALID,24.48,VALID,146,VALID,0.451562,
2012-04-28, 00:22:04,VALID,1001.22,VALID,0,VALID,89.9532,VALID,0,VALID,24.5013,VALID,146,VALID,0.249219,
2012-04-28, 00:23:04,VALID,1001.22,VALID,0,VALID,89.7472,VALID,0,VALID,24.5209,VALID,146,VALID,0.253906,
2012-04-28, 00:24:04,VALID,1001.25,VALID,0,VALID,89.6557,VALID,0,VALID,24.48,VALID,146,VALID,0.160547,
2012-04-28, 00:25:04,VALID,1001.23,VALID,0,VALID,89.6709,VALID,0,VALID,24.4818,VALID,146,VALID,0,
2012-04-28, 00:26:04,VALID,1001.23,VALID,0,VALID,89.6633,VALID,0,VALID,24.4818,VALID,146,VALID,0.0292969,
2012-04-28, 00:27:04,VALID,1001.24,VALID,0,VALID,89.6938,VALID,0,VALID,24.4623,VALID,146,VALID,0.524219,
2012-04-28, 00:28:04,VALID,1001.22,VALID,0,VALID,89.7167,VALID,0,VALID,24.4623,VALID,183,VALID,1.325,
2012-04-28, 00:29:04,VALID,1001.24,VALID,0,VALID,89.7243,VALID,0,VALID,24.5013,VALID,192,VALID,1.23242,
2012-04-28, 00:30:04,VALID,1001.21,VALID,0,VALID,89.6557,VALID,0,VALID,24.5404,VALID,185,VALID,0.974609,
2012-04-28, 00:31:04,VALID,1001.23,VALID,0,VALID,89.3428,VALID,0,VALID,24.5385,VALID,161,VALID,1.09687,
2012-04-28, 00:32:04,VALID,1001.23,VALID,0,VALID,89.0911,VALID,0,VALID,24.5599,VALID,160,VALID,1.09219,
2012-04-28, 00:33:04,VALID,1001.21,VALID,0,VALID,88.9461,VALID,0,VALID,24.5794,VALID,173,VALID,1.40703,
2012-04-28, 00:34:04,VALID,1001.22,VALID,0,VALID,88.7554,VALID,0,VALID,24.5989,VALID,163,VALID,0.913672,
2012-04-28, 00:35:04,VALID,1001.21,VALID,0,VALID,88.7172,VALID,0,VALID,24.5971,VALID,166,VALID,0.759375,
2012-04-28, 00:36:04,VALID,1001.2,VALID,0,VALID,88.6104,VALID,0,VALID,24.638,VALID,151,VALID,0.883594,
2012-04-28, 00:37:04,VALID,1001.19,VALID,0,VALID,88.5189,VALID,0,VALID,24.638,VALID,148,VALID,0.797656,
2012-04-28, 00:38:04,VALID,1001.15,VALID,0,VALID,88.5341,VALID,0,VALID,24.638,VALID,148,VALID,0.702344,
2012-04-28, 00:39:04,VALID,1001.15,VALID,0,VALID,88.5341,VALID,0,VALID,24.6166,VALID,148,VALID,0.5875,
2012-04-28, 00:40:04,VALID,1001.1,VALID,0,VALID,88.6028,VALID,0,VALID,24.6184,VALID,148,VALID,0.421094,
2012-04-28, 00:41:04,VALID,1001.09,VALID,0,VALID,88.7706,VALID,0,VALID,24.6184,VALID,148,VALID,0.368359,
2012-04-28, 00:42:04,VALID,1001.05,VALID,0,VALID,88.7935,VALID,0,VALID,24.5989,VALID,148,VALID,0.101563,
2012-04-28, 00:43:04,VALID,1001.03,VALID,0,VALID,88.9003,VALID,0,VALID,24.5794,VALID,148,VALID,0.0464844,
2012-04-28, 00:44:04,VALID,1000.99,VALID,0,VALID,88.9766,VALID,0,VALID,24.5599,VALID,148,VALID,0.0101562,
2012-04-28, 00:45:04,VALID,1000.94,VALID,0,VALID,89.0071,VALID,0,VALID,24.5404,VALID,148,VALID,0.170703,
2012-04-28, 00:46:04,VALID,1000.95,VALID,0,VALID,89.2208,VALID,0,VALID,24.5013,VALID,148,VALID,0.239063,
2012-04-28, 00:47:04,VALID,1000.94,VALID,0,VALID,89.2437,VALID,0,VALID,24.4604,VALID,148,VALID,0.239063,
2012-04-28, 00:48:04,VALID,1000.9,VALID,0,VALID,89.3276,VALID,0,VALID,24.4818,VALID,148,VALID,0.439063,
2012-04-28, 00:49:04,VALID,1000.89,VALID,0,VALID,89.1979,VALID,0,VALID,24.4428,VALID,148,VALID,0.347266,
2012-04-28, 00:50:04,VALID,1000.88,VALID,0,VALID,89.1521,VALID,0,VALID,24.4428,VALID,148,VALID,0.365234,
2012-04-28, 00:51:04,VALID,1000.89,VALID,0,VALID,89.2208,VALID,0,VALID,24.4233,VALID,148,VALID,0.457031,
2012-04-28, 00:52:04,VALID,1000.87,VALID,0,VALID,89.1216,VALID,0,VALID,24.4233,VALID,148,VALID,0.275,
2012-04-28, 00:53:04,VALID,1000.84,VALID,0,VALID,89.2437,VALID,0,VALID,24.3824,VALID,148,VALID,0.267969,
2012-04-28, 00:54:04,VALID,1000.82,VALID,0,VALID,89.3276,VALID,0,VALID,24.3842,VALID,148,VALID,0.187109,
2012-04-28, 00:55:04,VALID,1000.78,VALID,0,VALID,89.3352,VALID,0,VALID,24.3647,VALID,148,VALID,0.135156,
2012-04-28, 00:56:04,VALID,1000.76,VALID,0,VALID,89.3734,VALID,0,VALID,24.3452,VALID,148,VALID,0.0046875,
2012-04-28, 00:57:04,VALID,1000.72,VALID,0,VALID,89.4573,VALID,0,VALID,24.3257,VALID,148,VALID,0.240234,
2012-04-28, 00:58:04,VALID,1000.72,VALID,0,VALID,89.5641,VALID,0,VALID,24.3043,VALID,148,VALID,0.219141,
2012-04-28, 00:59:04,VALID,1000.68,VALID,0,VALID,89.6328,VALID,0,VALID,24.2848,VALID,148,VALID,0.0683594,
2012-04-28, 01:00:04,VALID,1000.69,VALID,0,VALID,89.6633,VALID,0,VALID,24.2866,VALID,148,VALID,0,
2012-04-28, 01:01:04,VALID,1000.68,VALID,0,VALID,89.7243,VALID,0,VALID,24.2671,VALID,148,VALID,0,
2012-04-28, 01:02:04,VALID,1000.67,VALID,0,VALID,89.7014,VALID,0,VALID,24.2263,VALID,148,VALID,0,
2012-04-28, 01:03:04,VALID,1000.66,VALID,0,VALID,89.6557,VALID,0,VALID,24.2495,VALID,148,VALID,0,
2012-04-28, 01:04:04,VALID,1000.67,VALID,0,VALID,89.8311,VALID,0,VALID,24.2086,VALID,148,VALID,0.128516,
2012-04-28, 01:05:04,VALID,1000.66,VALID,0,VALID,89.9914,VALID,0,VALID,24.2086,VALID,148,VALID,0.239844,
2012-04-28, 01:06:04,VALID,1000.66,VALID,0,VALID,90.0066,VALID,0,VALID,24.1891,VALID,148,VALID,0.341406,
2012-04-28, 01:07:04,VALID,1000.65,VALID,0,VALID,90.0295,VALID,0,VALID,24.1891,VALID,148,VALID,0.314063,
2012-04-28, 01:08:04,VALID,1000.66,VALID,0,VALID,90.0448,VALID,0,VALID,24.1696,VALID,148,VALID,0.496484,
2012-04-28, 01:09:04,VALID,1000.66,VALID,0,VALID,90.1211,VALID,0,VALID,24.15,VALID,109,VALID,0.729688,
2012-04-28, 01:10:04,VALID,1000.68,VALID,0,VALID,90.4339,VALID,0,VALID,24.1696,VALID,82,VALID,0.858984,
2012-04-28, 01:11:04,VALID,1000.66,VALID,0,VALID,90.6933,VALID,0,VALID,24.1891,VALID,82,VALID,0.844531,
2012-04-28, 01:12:04,VALID,1000.65,VALID,0,VALID,90.7467,VALID,0,VALID,24.2086,VALID,82,VALID,0.792969,
2012-04-28, 01:13:04,VALID,1000.62,VALID,0,VALID,90.9374,VALID,0,VALID,24.2476,VALID,82,VALID,0.743359,
2012-04-28, 01:14:04,VALID,1000.65,VALID,0,VALID,90.8459,VALID,0,VALID,24.2476,VALID,82,VALID,0.633594,
2012-04-28, 01:15:04,VALID,1000.59,VALID,0,VALID,90.6704,VALID,0,VALID,24.2281,VALID,82,VALID,0.452344,
2012-04-28, 01:16:04,VALID,1000.55,VALID,0,VALID,90.5026,VALID,0,VALID,24.2086,VALID,82,VALID,0.284766,
2012-04-28, 01:17:04,VALID,1000.58,VALID,0,VALID,90.4491,VALID,0,VALID,24.1696,VALID,82,VALID,0.289453,
2012-04-28, 01:18:04,VALID,1000.54,VALID,0,VALID,90.6017,VALID,0,VALID,24.1696,VALID,82,VALID,0.466406,
2012-04-28, 01:19:04,VALID,1000.55,VALID,0,VALID,90.8764,VALID,0,VALID,24.1305,VALID,82,VALID,0.667188,
2012-04-28, 01:20:04,VALID,1000.55,VALID,0,VALID,91.1892,VALID,0,VALID,24.1128,VALID,82,VALID,0.864453,
2012-04-28, 01:21:04,VALID,1000.55,VALID,0,VALID,91.7309,VALID,0,VALID,24.111,VALID,82,VALID,0.807031,
2012-04-28, 01:22:04,VALID,1000.53,VALID,0,VALID,91.5478,VALID,0,VALID,24.1305,VALID,82,VALID,0.687109,
2012-04-28, 01:23:04,VALID,1000.51,VALID,0,VALID,91.4791,VALID,0,VALID,24.0915,VALID,82,VALID,0.742969,
2012-04-28, 01:24:04,VALID,1000.52,VALID,0,VALID,91.3876,VALID,0,VALID,24.0915,VALID,82,VALID,0.750391,
2012-04-28, 01:25:04,VALID,1000.5,VALID,0,VALID,91.3266,VALID,0,VALID,24.072,VALID,82,VALID,0.640625,
2012-04-28, 01:26:04,VALID,1000.47,VALID,0,VALID,91.3723,VALID,0,VALID,24.0525,VALID,82,VALID,0.669922,
2012-04-28, 01:27:04,VALID,1000.47,VALID,0,VALID,91.4028,VALID,0,VALID,24.0543,VALID,82,VALID,0.587109,
2012-04-28, 01:28:04,VALID,1000.45,VALID,0,VALID,91.3952,VALID,0,VALID,24.0134,VALID,82,VALID,0.584766,
2012-04-28, 01:29:04,VALID,1000.45,VALID,0,VALID,91.7538,VALID,0,VALID,24.0329,VALID,82,VALID,0.654688,
2012-04-28, 01:30:04,VALID,1000.44,VALID,0,VALID,91.9751,VALID,0,VALID,24.0525,VALID,82,VALID,0.696484,
2012-04-28, 01:31:04,VALID,1000.42,VALID,0,VALID,91.9903,VALID,0,VALID,24.072,VALID,82,VALID,0.778516,
2012-04-28, 01:32:04,VALID,1000.4,VALID,0,VALID,92.0361,VALID,0,VALID,24.072,VALID,82,VALID,0.825781,
2012-04-28, 01:33:04,VALID,1000.43,VALID,0,VALID,92.0361,VALID,0,VALID,24.0915,VALID,82,VALID,0.732813,
2012-04-28, 01:34:04,VALID,1000.41,VALID,0,VALID,91.8377,VALID,0,VALID,24.072,VALID,82,VALID,0.592188,
2012-04-28, 01:35:04,VALID,1000.4,VALID,0,VALID,91.7614,VALID,0,VALID,24.0525,VALID,82,VALID,0.551172,
2012-04-28, 01:36:04,VALID,1000.4,VALID,0,VALID,91.9217,VALID,0,VALID,24.0525,VALID,82,VALID,0.505859,
2012-04-28, 01:37:04,VALID,1000.43,VALID,0,VALID,91.9827,VALID,0,VALID,24.0311,VALID,82,VALID,0.358984,
2012-04-28, 01:38:04,VALID,1000.37,VALID,0,VALID,91.9827,VALID,0,VALID,24.0525,VALID,82,VALID,0.311328,
2012-04-28, 01:39:04,VALID,1000.37,VALID,0,VALID,92.0209,VALID,0,VALID,24.0525,VALID,82,VALID,0.364062,
2012-04-28, 01:40:04,VALID,1000.35,VALID,0,VALID,91.998,VALID,0,VALID,24.0525,VALID,82,VALID,0.355859,
2012-04-28, 01:41:04,VALID,1000.33,VALID,0,VALID,91.9903,VALID,0,VALID,24.0329,VALID,82,VALID,0.407422,
2012-04-28, 01:42:04,VALID,1000.33,VALID,0,VALID,91.8759,VALID,0,VALID,24.0134,VALID,82,VALID,0.538281,
2012-04-28, 01:43:04,VALID,1000.29,VALID,0,VALID,91.9293,VALID,0,VALID,24.0134,VALID,82,VALID,0.597656,
2012-04-28, 01:44:04,VALID,1000.31,VALID,0,VALID,92.0056,VALID,0,VALID,23.9921,VALID,82,VALID,0.566797,
2012-04-28, 01:45:04,VALID,1000.28,VALID,0,VALID,91.8759,VALID,0,VALID,23.9939,VALID,82,VALID,0.564844,
2012-04-28, 01:46:04,VALID,1000.27,VALID,0,VALID,91.8835,VALID,0,VALID,23.9531,VALID,82,VALID,0.541016,
2012-04-28, 01:47:04,VALID,1000.28,VALID,0,VALID,91.9293,VALID,0,VALID,23.9744,VALID,82,VALID,0.475391,
2012-04-28, 01:48:04,VALID,1000.27,VALID,0,VALID,91.9674,VALID,0,VALID,23.9549,VALID,82,VALID,0.390625,
2012-04-28, 01:49:04,VALID,1000.26,VALID,0,VALID,91.9217,VALID,0,VALID,23.9336,VALID,82,VALID,0.252734,
2012-04-28, 01:50:04,VALID,1000.27,VALID,0,VALID,91.8606,VALID,0,VALID,23.9354,VALID,82,VALID,0.170312,
2012-04-28, 01:51:04,VALID,1000.26,VALID,0,VALID,91.7691,VALID,0,VALID,23.8963,VALID,82,VALID,0.129297,
2012-04-28, 01:52:04,VALID,1000.24,VALID,0,VALID,91.792,VALID,0,VALID,23.8768,VALID,82,VALID,0.187891,
2012-04-28, 01:53:04,VALID,1000.26,VALID,0,VALID,92.0285,VALID,0,VALID,23.8768,VALID,82,VALID,0.216016,
2012-04-28, 01:54:04,VALID,1000.28,VALID,0,VALID,92.1887,VALID,0,VALID,23.836,VALID,82,VALID,0.234766,
2012-04-28, 01:55:04,VALID,1000.28,VALID,0,VALID,92.3108,VALID,0,VALID,23.836,VALID,82,VALID,0.191797,
2012-04-28, 01:56:04,VALID,1000.27,VALID,0,VALID,92.3337,VALID,0,VALID,23.8573,VALID,82,VALID,0.200781,
2012-04-28, 01:57:04,VALID,1000.29,VALID,0,VALID,92.3031,VALID,0,VALID,23.8573,VALID,82,VALID,0.0015625,
2012-04-28, 01:58:04,VALID,1000.29,VALID,0,VALID,92.2726,VALID,0,VALID,23.8573,VALID,82,VALID,0,
2012-04-28, 01:59:04,VALID,1000.29,VALID,0,VALID,92.2803,VALID,0,VALID,23.836,VALID,82,VALID,0.0289063,
2012-04-28, 02:00:04,VALID,1000.3,VALID,0,VALID,92.326,VALID,0,VALID,23.8573,VALID,82,VALID,0.146094,
2012-04-28, 02:01:04,VALID,1000.31,VALID,0,VALID,92.4176,VALID,0,VALID,23.836,VALID,82,VALID,0.280469,
2012-04-28, 02:02:04,VALID,1000.31,VALID,0,VALID,92.4939,VALID,0,VALID,23.8555,VALID,121,VALID,0.608984,
2012-04-28, 02:03:04,VALID,1000.3,VALID,0,VALID,92.4939,VALID,0,VALID,23.875,VALID,121,VALID,0.635547,
2012-04-28, 02:04:04,VALID,1000.31,VALID,0,VALID,92.471,VALID,0,VALID,23.9159,VALID,121,VALID,0.53125,
2012-04-28, 02:05:04,VALID,1000.3,VALID,0,VALID,92.4328,VALID,0,VALID,23.8945,VALID,121,VALID,0.424219,
2012-04-28, 02:06:04,VALID,1000.29,VALID,0,VALID,92.2116,VALID,0,VALID,23.914,VALID,121,VALID,0.314453,
2012-04-28, 02:07:04,VALID,1000.26,VALID,0,VALID,92.0437,VALID,0,VALID,23.9336,VALID,121,VALID,0.446875,
2012-04-28, 02:08:04,VALID,1000.25,VALID,0,VALID,91.7462,VALID,0,VALID,23.8945,VALID,121,VALID,0.480859,
2012-04-28, 02:09:04,VALID,1000.2,VALID,0,VALID,91.5707,VALID,0,VALID,23.8945,VALID,121,VALID,0.659766,
2012-04-28, 02:10:04,VALID,1000.18,VALID,0,VALID,91.5631,VALID,0,VALID,23.8945,VALID,121,VALID,0.274219,
2012-04-28, 02:11:04,VALID,1000.18,VALID,0,VALID,91.4257,VALID,0,VALID,23.9159,VALID,121,VALID,0.0121094,
2012-04-28, 02:12:04,VALID,1000.16,VALID,0,VALID,91.5249,VALID,0,VALID,23.8963,VALID,121,VALID,0,
2012-04-28, 02:13:04,VALID,1000.16,VALID,0,VALID,91.7462,VALID,0,VALID,23.8555,VALID,121,VALID,0.00078125,
2012-04-28, 02:14:04,VALID,1000.17,VALID,0,VALID,91.8225,VALID,0,VALID,23.8768,VALID,121,VALID,0,
2012-04-28, 02:15:04,VALID,1000.16,VALID,0,VALID,91.9751,VALID,0,VALID,23.8378,VALID,121,VALID,0,
2012-04-28, 02:16:04,VALID,1000.2,VALID,0,VALID,92.1277,VALID,0,VALID,23.8165,VALID,121,VALID,0,
2012-04-28, 02:17:04,VALID,1000.17,VALID,0,VALID,92.1811,VALID,0,VALID,23.8183,VALID,121,VALID,0,
2012-04-28, 02:18:04,VALID,1000.16,VALID,0,VALID,92.2421,VALID,0,VALID,23.797,VALID,121,VALID,0,
2012-04-28, 02:19:04,VALID,1000.14,VALID,0,VALID,92.1658,VALID,0,VALID,23.7793,VALID,121,VALID,0,
2012-04-28, 02:20:04,VALID,1000.15,VALID,0,VALID,92.204,VALID,0,VALID,23.7597,VALID,121,VALID,0,
2012-04-28, 02:21:04,VALID,1000.12,VALID,0,VALID,92.0514,VALID,0,VALID,23.7207,VALID,121,VALID,0,
2012-04-28, 02:22:04,VALID,1000.1,VALID,0,VALID,92.1429,VALID,0,VALID,23.6799,VALID,121,VALID,0.0140625,
2012-04-28, 02:23:04,VALID,1000.1,VALID,0,VALID,92.2955,VALID,0,VALID,23.6604,VALID,121,VALID,0.501953,
2012-04-28, 02:24:04,VALID,1000.09,VALID,0,VALID,92.3871,VALID,0,VALID,23.7012,VALID,121,VALID,0.808203,
2012-04-28, 02:25:04,VALID,1000.09,VALID,0,VALID,92.471,VALID,0,VALID,23.7597,VALID,121,VALID,0.842188,
2012-04-28, 02:26:04,VALID,1000.09,VALID,0,VALID,92.3642,VALID,0,VALID,23.7988,VALID,121,VALID,0.897656,
2012-04-28, 02:27:04,VALID,1000.1,VALID,0,VALID,92.1277,VALID,0,VALID,23.797,VALID,121,VALID,0.838281,
2012-04-28, 02:28:04,VALID,1000.04,VALID,0,VALID,92.0361,VALID,0,VALID,23.8165,VALID,121,VALID,0.65625,
2012-04-28, 02:29:04,VALID,1000.01,VALID,0,VALID,92.0666,VALID,0,VALID,23.8573,VALID,121,VALID,0.514453,
2012-04-28, 02:30:04,VALID,1000.01,VALID,0,VALID,92.0895,VALID,0,VALID,23.8768,VALID,121,VALID,0.45,
2012-04-28, 02:31:04,VALID,1000.04,VALID,0,VALID,92.0361,VALID,0,VALID,23.8555,VALID,121,VALID,0.405859,
2012-04-28, 02:32:04,VALID,999.969,VALID,0,VALID,92.0437,VALID,0,VALID,23.8573,VALID,121,VALID,0.283984,
2012-04-28, 02:33:04,VALID,999.978,VALID,0,VALID,92.0666,VALID,0,VALID,23.836,VALID,121,VALID,0.366406,
2012-04-28, 02:34:04,VALID,999.967,VALID,0,VALID,92.0514,VALID,0,VALID,23.8378,VALID,121,VALID,0.212891,
2012-04-28, 02:35:04,VALID,999.928,VALID,0,VALID,92.0437,VALID,0,VALID,23.8378,VALID,121,VALID,0.124609,
2012-04-28, 02:36:04,VALID,999.931,VALID,0,VALID,91.9445,VALID,0,VALID,23.7988,VALID,121,VALID,0.196875,
2012-04-28, 02:37:04,VALID,999.931,VALID,0,VALID,91.9369,VALID,0,VALID,23.7597,VALID,121,VALID,0.224609,
2012-04-28, 02:38:04,VALID,999.929,VALID,0,VALID,92.0132,VALID,0,VALID,23.7402,VALID,121,VALID,0.0105469,
2012-04-28, 02:39:04,VALID,999.936,VALID,0,VALID,92.1353,VALID,0,VALID,23.6994,VALID,121,VALID,0,
2012-04-28, 02:40:04,VALID,999.959,VALID,0,VALID,92.2421,VALID,0,VALID,23.7012,VALID,121,VALID,0,
2012-04-28, 02:41:04,VALID,999.958,VALID,0,VALID,92.2879,VALID,0,VALID,23.6817,VALID,121,VALID,0.394141,
2012-04-28, 02:42:04,VALID,999.964,VALID,0,VALID,92.3108,VALID,0,VALID,23.7012,VALID,121,VALID,0.403125,
2012-04-28, 02:43:04,VALID,999.973,VALID,0,VALID,92.326,VALID,0,VALID,23.6817,VALID,121,VALID,0.523438,
2012-04-28, 02:44:04,VALID,999.95,VALID,0,VALID,92.3718,VALID,0,VALID,23.7012,VALID,121,VALID,0.438672,
2012-04-28, 02:45:04,VALID,999.914,VALID,0,VALID,92.3642,VALID,0,VALID,23.7012,VALID,121,VALID,0.185937,
2012-04-28, 02:46:04,VALID,999.925,VALID,0,VALID,92.3566,VALID,0,VALID,23.7012,VALID,121,VALID,0,
2012-04-28, 02:47:04,VALID,999.887,VALID,0,VALID,92.3413,VALID,0,VALID,23.6817,VALID,121,VALID,0,
2012-04-28, 02:48:04,VALID,999.89,VALID,0,VALID,92.2879,VALID,0,VALID,23.6604,VALID,121,VALID,0,
2012-04-28, 02:49:04,VALID,999.855,VALID,0,VALID,92.2803,VALID,0,VALID,23.6622,VALID,121,VALID,0,
2012-04-28, 02:50:04,VALID,999.86,VALID,0,VALID,92.2421,VALID,0,VALID,23.6232,VALID,121,VALID,0,
2012-04-28, 02:51:04,VALID,999.858,VALID,0,VALID,92.2192,VALID,0,VALID,23.6036,VALID,121,VALID,0,
2012-04-28, 02:52:04,VALID,999.879,VALID,0,VALID,92.2116,VALID,0,VALID,23.5628,VALID,121,VALID,0,
2012-04-28, 02:53:04,VALID,999.881,VALID,0,VALID,92.2879,VALID,0,VALID,23.5646,VALID,121,VALID,0,
2012-04-28, 02:54:04,VALID,999.879,VALID,0,VALID,92.3718,VALID,0,VALID,23.5451,VALID,121,VALID,0,
2012-04-28, 02:55:04,VALID,999.905,VALID,0,VALID,92.5015,VALID,0,VALID,23.5238,VALID,121,VALID,0,
2012-04-28, 02:56:04,VALID,999.92,VALID,0,VALID,92.5626,VALID,0,VALID,23.5238,VALID,121,VALID,0,
2012-04-28, 02:57:04,VALID,999.925,VALID,0,VALID,92.5091,VALID,0,VALID,23.5238,VALID,121,VALID,0,
2012-04-28, 02:58:04,VALID,999.954,VALID,0,VALID,92.5015,VALID,0,VALID,23.5451,VALID,121,VALID,0,
2012-04-28, 02:59:04,VALID,999.933,VALID,0,VALID,92.5015,VALID,0,VALID,23.5238,VALID,121,VALID,0,
2012-04-28, 03:00:04,VALID,999.937,VALID,0,VALID,92.4176,VALID,0,VALID,23.5451,VALID,121,VALID,0,
2012-04-28, 03:01:04,VALID,999.943,VALID,0,VALID,92.4023,VALID,0,VALID,23.5238,VALID,121,VALID,0,
2012-04-28, 03:02:04,VALID,999.932,VALID,0,VALID,92.4252,VALID,0,VALID,23.5256,VALID,121,VALID,0,
2012-04-28, 03:03:04,VALID,999.92,VALID,0,VALID,92.5244,VALID,0,VALID,23.5256,VALID,121,VALID,0,
2012-04-28, 03:04:04,VALID,999.923,VALID,0,VALID,92.6541,VALID,0,VALID,23.5043,VALID,121,VALID,0,
2012-04-28, 03:05:04,VALID,999.942,VALID,0,VALID,92.6007,VALID,0,VALID,23.5043,VALID,121,VALID,0,
2012-04-28, 03:06:04,VALID,999.973,VALID,0,VALID,92.6465,VALID,0,VALID,23.4848,VALID,121,VALID,0,
2012-04-28, 03:07:04,VALID,999.991,VALID,0,VALID,92.8067,VALID,0,VALID,23.5043,VALID,121,VALID,0,
2012-04-28, 03:08:04,VALID,999.961,VALID,0,VALID,92.7991,VALID,0,VALID,23.4848,VALID,121,VALID,0,
2012-04-28, 03:09:04,VALID,999.982,VALID,0,VALID,92.738,VALID,0,VALID,23.5061,VALID,121,VALID,0,
2012-04-28, 03:10:04,VALID,999.968,VALID,0,VALID,92.7533,VALID,0,VALID,23.4866,VALID,121,VALID,0,
2012-04-28, 03:11:04,VALID,999.935,VALID,0,VALID,92.738,VALID,0,VALID,23.4671,VALID,121,VALID,0,
2012-04-28, 03:12:04,VALID,999.902,VALID,0,VALID,92.7151,VALID,0,VALID,23.4458,VALID,121,VALID,0,
2012-04-28, 03:13:04,VALID,999.853,VALID,0,VALID,92.8754,VALID,0,VALID,23.4458,VALID,121,VALID,0,
2012-04-28, 03:14:04,VALID,999.863,VALID,0,VALID,93.0127,VALID,0,VALID,23.4848,VALID,121,VALID,0,
2012-04-28, 03:15:04,VALID,999.864,VALID,0,VALID,93.0508,VALID,0,VALID,23.5061,VALID,121,VALID,0.292578,
2012-04-28, 03:16:04,VALID,999.815,VALID,0,VALID,93.0508,VALID,0,VALID,23.5043,VALID,121,VALID,0.284375,
2012-04-28, 03:17:04,VALID,999.81,VALID,0,VALID,92.9288,VALID,0,VALID,23.4848,VALID,121,VALID,0.444141,
2012-04-28, 03:18:04,VALID,999.782,VALID,0,VALID,92.8906,VALID,0,VALID,23.4653,VALID,121,VALID,0.335156,
2012-04-28, 03:19:04,VALID,999.793,VALID,0,VALID,92.8906,VALID,0,VALID,23.4866,VALID,121,VALID,0.314844,
2012-04-28, 03:20:04,VALID,999.796,VALID,0,VALID,92.8906,VALID,0,VALID,23.4263,VALID,121,VALID,0.141016,
2012-04-28, 03:21:04,VALID,999.765,VALID,0,VALID,92.8983,VALID,0.104696,VALID,23.4067,VALID,121,VALID,0,
2012-04-28, 03:22:04,VALID,999.768,VALID,0,VALID,92.8601,VALID,0,VALID,23.3908,VALID,121,VALID,0,
2012-04-28, 03:23:04,VALID,999.701,VALID,0,VALID,92.8677,VALID,0,VALID,23.3695,VALID,121,VALID,0,
2012-04-28, 03:24:04,VALID,999.701,VALID,0,VALID,92.883,VALID,0,VALID,23.3518,VALID,121,VALID,0,
2012-04-28, 03:25:04,VALID,999.671,VALID,0,VALID,92.883,VALID,0,VALID,23.3518,VALID,121,VALID,0.0265625,
2012-04-28, 03:26:04,VALID,999.678,VALID,0,VALID,92.9745,VALID,0,VALID,23.3518,VALID,121,VALID,0.297656,
2012-04-28, 03:27:04,VALID,999.677,VALID,0,VALID,93.0966,VALID,0,VALID,23.3305,VALID,121,VALID,0.0117188,
2012-04-28, 03:28:04,VALID,999.669,VALID,0,VALID,93.1119,VALID,0,VALID,23.3518,VALID,121,VALID,0.255469,
2012-04-28, 03:29:04,VALID,999.685,VALID,0,VALID,93.0508,VALID,0,VALID,23.3323,VALID,121,VALID,0.232812,
2012-04-28, 03:30:04,VALID,999.668,VALID,0,VALID,93.028,VALID,0,VALID,23.3323,VALID,121,VALID,0.230859,
2012-04-28, 03:31:04,VALID,999.657,VALID,0,VALID,93.089,VALID,0,VALID,23.3127,VALID,121,VALID,0.315234,
2012-04-28, 03:32:04,VALID,999.637,VALID,0,VALID,93.0737,VALID,0,VALID,23.3127,VALID,121,VALID,0.256641,
2012-04-28, 03:33:04,VALID,999.609,VALID,0,VALID,93.1577,VALID,0,VALID,23.2932,VALID,116,VALID,0.580859,
2012-04-28, 03:34:04,VALID,999.595,VALID,0,VALID,92.9364,VALID,0,VALID,23.2542,VALID,116,VALID,0.809766,
2012-04-28, 03:35:04,VALID,999.584,VALID,0,VALID,92.8143,VALID,0,VALID,23.2347,VALID,116,VALID,0.841797,
2012-04-28, 03:36:04,VALID,999.598,VALID,0,VALID,92.7914,VALID,0,VALID,23.2152,VALID,114,VALID,0.803906,
2012-04-28, 03:37:04,VALID,999.611,VALID,0,VALID,93.0814,VALID,0,VALID,23.2329,VALID,108,VALID,0.973437,
2012-04-28, 03:38:04,VALID,999.626,VALID,0,VALID,93.3789,VALID,0,VALID,23.2524,VALID,106,VALID,0.919141,
2012-04-28, 03:39:04,VALID,999.652,VALID,0,VALID,93.4781,VALID,0,VALID,23.2507,VALID,100,VALID,0.966016,
2012-04-28, 03:40:04,VALID,999.675,VALID,0,VALID,93.4781,VALID,0,VALID,23.2719,VALID,94,VALID,0.962891,
2012-04-28, 03:41:04,VALID,999.699,VALID,0,VALID,93.4705,VALID,0,VALID,23.2719,VALID,90,VALID,0.904297,
2012-04-28, 03:42:04,VALID,999.692,VALID,0,VALID,93.4705,VALID,0,VALID,23.2915,VALID,90,VALID,0.879687,
2012-04-28, 03:43:04,VALID,999.701,VALID,0,VALID,93.4323,VALID,0,VALID,23.2719,VALID,83,VALID,0.787109,
2012-04-28, 03:44:04,VALID,999.713,VALID,0,VALID,93.3942,VALID,0,VALID,23.2719,VALID,73,VALID,0.814844,
2012-04-28, 03:45:04,VALID,999.697,VALID,0,VALID,93.4705,VALID,0,VALID,23.2719,VALID,72,VALID,0.770703,
2012-04-28, 03:46:04,VALID,999.705,VALID,0,VALID,93.4628,VALID,0,VALID,23.2524,VALID,60,VALID,0.856641,
2012-04-28, 03:47:04,VALID,999.71,VALID,0,VALID,93.44,VALID,0,VALID,23.2524,VALID,52,VALID,0.979688,
2012-04-28, 03:48:04,VALID,999.706,VALID,0,VALID,93.4476,VALID,0,VALID,23.2117,VALID,52,VALID,1.04336,